• In Hungary
  • List of Countries
  • For 7 days
  • Water Temperature
  • Satellite Maps
  • Weather Map
  • News
  • Weather Widgets
  • user-avatar
    Login

    Hourly Weather Blanes

    Today, 22 January, Monday

    Time Temperature Precipitation Wind Pressure Humidity
    00:00 +14°C° 0 mm 2 mps 765 mmHg 72%
    01:00 +14°C° 0 mm 2 mps 764 mmHg 71%
    02:00 +12°C° 0 mm 3 mps 764 mmHg 71%
    03:00 +12°C° 0 mm 3 mps 764 mmHg 71%
    04:00 +13°C° 0 mm 2 mps 764 mmHg 71%
    05:00 +12°C° 0 mm 2 mps 764 mmHg 71%
    06:00 +12°C° 0 mm 2 mps 764 mmHg 71%
    07:00 +13°C° 0 mm 2 mps 764 mmHg 67%
    08:00 +14°C° 0 mm 2 mps 765 mmHg 63%
    09:00 +15°C° 0 mm 2 mps 765 mmHg 59%
    10:00 +17°C° 0 mm 2 mps 765 mmHg 56%
    11:00 +18°C° 0 mm 2 mps 765 mmHg 53%
    12:00 +20°C° 0 mm 2 mps 765 mmHg 50%
    13:00 +20°C° 0 mm 2 mps 764 mmHg 53%
    14:00 +19°C° 0 mm 2 mps 764 mmHg 56%
    15:00 +19°C° 0 mm 2 mps 764 mmHg 59%
    16:00 +17°C° 0 mm 2 mps 764 mmHg 67%
    17:00 +16°C° 0 mm 2 mps 764 mmHg 75%
    18:00 +14°C° 0 mm 2 mps 764 mmHg 83%
    19:00 +14°C° 0 mm 1 mps 765 mmHg 83%
    20:00 +13°C° 0 mm 1 mps 765 mmHg 83%
    21:00 +13°C° 0 mm 1 mps 766 mmHg 83%
    22:00 +13°C° 0 mm 1 mps 766 mmHg 82%
    23:00 +13°C° 0 mm 2 mps 766 mmHg 80%

    Tomorrow, 23 January, Tuesday

    Time Temperature Precipitation Wind Pressure Humidity
    00:00 +13°C° 0 mm 2 mps 766 mmHg 79%
    01:00 +12°C° 0 mm 2 mps 766 mmHg 79%
    02:00 +12°C° 0 mm 2 mps 766 mmHg 79%
    03:00 +12°C° 0 mm 2 mps 766 mmHg 79%
    04:00 +12°C° 0 mm 2 mps 766 mmHg 79%
    05:00 +12°C° 0 mm 2 mps 766 mmHg 79%
    06:00 +10°C° 0 mm 2 mps 766 mmHg 78%
    07:00 +12°C° 0 mm 2 mps 767 mmHg 73%
    08:00 +13°C° 0 mm 2 mps 767 mmHg 68%
    09:00 +15°C° 0 mm 2 mps 767 mmHg 63%
    10:00 +16°C° 0 mm 2 mps 767 mmHg 59%
    11:00 +18°C° 0 mm 2 mps 767 mmHg 55%
    12:00 +19°C° 0 mm 2 mps 767 mmHg 50%
    13:00 +19°C° 0 mm 2 mps 767 mmHg 51%
    14:00 +19°C° 0 mm 2 mps 767 mmHg 52%
    15:00 +19°C° 0 mm 2 mps 767 mmHg 53%
    16:00 +18°C° 0 mm 2 mps 767 mmHg 62%
    17:00 +16°C° 0 mm 2 mps 768 mmHg 71%
    18:00 +14°C° 0 mm 2 mps 768 mmHg 81%
    19:00 +14°C° 0 mm 2 mps 768 mmHg 81%
    20:00 +13°C° 0 mm 2 mps 768 mmHg 81%
    21:00 +13°C° 0 mm 2 mps 769 mmHg 81%
    22:00 +13°C° 0 mm 2 mps 769 mmHg 80%
    23:00 +13°C° 0 mm 2 mps 769 mmHg 79%

    Day after tomorrow, 24 January, Wednesday

    Time Temperature Precipitation Wind Pressure Humidity
    00:00 +13°C° 0 mm 1 mps 769 mmHg 78%
    01:00 +12°C° 0 mm 1 mps 768 mmHg 78%
    02:00 +12°C° 0 mm 1 mps 768 mmHg 78%
    03:00 +12°C° 0 mm 1 mps 768 mmHg 78%
    04:00 +12°C° 0 mm 1 mps 768 mmHg 79%
    05:00 +11°C° 0 mm 1 mps 768 mmHg 80%
    06:00 +11°C° 0 mm 1 mps 768 mmHg 81%
    07:00 +12°C° 0 mm 1 mps 768 mmHg 77%
    08:00 +13°C° 0 mm 1 mps 769 mmHg 72%
    09:00 +14°C° 0 mm 1 mps 769 mmHg 68%
    10:00 +16°C° 0 mm 1 mps 769 mmHg 65%
    11:00 +17°C° 0 mm 2 mps 768 mmHg 61%
    12:00 +18°C° 0 mm 2 mps 768 mmHg 58%
    13:00 +18°C° 0 mm 3 mps 768 mmHg 59%
    14:00 +18°C° 0 mm 3 mps 767 mmHg 61%
    15:00 +18°C° 0 mm 4 mps 767 mmHg 63%
    16:00 +17°C° 0 mm 4 mps 767 mmHg 71%
    17:00 +14°C° 0 mm 4 mps 767 mmHg 80%
    18:00 +13°C° 0 mm 4 mps 767 mmHg 89%
    19:00 +12°C° 0 mm 3 mps 767 mmHg 90%
    20:00 +12°C° 0 mm 3 mps 767 mmHg 92%
    21:00 +12°C° 0 mm 3 mps 767 mmHg 93%
    22:00 +11°C° 0 mm 3 mps 767 mmHg 93%
    23:00 +11°C° 0 mm 3 mps 766 mmHg 93%

    25 January, Thursday

    Time Temperature Precipitation Wind Pressure Humidity
    00:00 +11°C° 0 mm 3 mps 766 mmHg 94%
    01:00 +11°C° 0 mm 4 mps 766 mmHg 94%
    02:00 +11°C° 0 mm 4 mps 765 mmHg 94%
    03:00 +11°C° 0 mm 4 mps 765 mmHg 94%
    04:00 +11°C° 0 mm 4 mps 764 mmHg 93%
    05:00 +11°C° 0 mm 4 mps 764 mmHg 93%
    06:00 +11°C° 0 mm 4 mps 764 mmHg 93%
    07:00 +12°C° 0 mm 5 mps 764 mmHg 90%
    08:00 +12°C° 0 mm 5 mps 764 mmHg 87%
    09:00 +13°C° 0 mm 5 mps 763 mmHg 83%
    10:00 +14°C° 0 mm 6 mps 763 mmHg 76%
    11:00 +15°C° 0 mm 6 mps 763 mmHg 70%
    12:00 +17°C° 0 mm 6 mps 762 mmHg 63%
    13:00 +17°C° 0 mm 6 mps 761 mmHg 61%
    14:00 +17°C° 0 mm 5 mps 761 mmHg 60%
    15:00 +17°C° 0 mm 5 mps 760 mmHg 59%
    16:00 +15°C° 0 mm 4 mps 760 mmHg 68%
    17:00 +13°C° 0 mm 3 mps 760 mmHg 77%
    18:00 +12°C° 0 mm 3 mps 760 mmHg 86%
    19:00 +12°C° 0.2 mm 3 mps 760 mmHg 86%
    20:00 +12°C° 0.2 mm 3 mps 760 mmHg 86%
    21:00 +12°C° 0.2 mm 3 mps 760 mmHg 86%
    22:00 +11°C° 0.7 mm 4 mps 760 mmHg 86%
    23:00 +10°C° 0.7 mm 5 mps 760 mmHg 87%

    26 January, Friday

    Time Temperature Precipitation Wind Pressure Humidity
    00:00 +9°C° 0.7 mm 7 mps 760 mmHg 88%
    01:00 +9°C° 0.9 mm 7 mps 761 mmHg 87%
    02:00 +8°C° 0.9 mm 7 mps 761 mmHg 86%
    03:00 +7°C° 0.9 mm 8 mps 761 mmHg 86%
    04:00 +7°C° 0.4 mm 8 mps 761 mmHg 84%
    05:00 +8°C° 0.4 mm 7 mps 761 mmHg 83%
    06:00 +6°C° 0.4 mm 7 mps 762 mmHg 81%
    07:00 +8°C° 0.3 mm 7 mps 762 mmHg 81%
    08:00 +8°C° 0.3 mm 7 mps 763 mmHg 81%
    09:00 +8°C° 0.3 mm 6 mps 764 mmHg 81%
    10:00 +9°C° 0.3 mm 6 mps 764 mmHg 75%
    11:00 +9°C° 0.3 mm 6 mps 764 mmHg 70%
    12:00 +10°C° 0.3 mm 6 mps 764 mmHg 65%
    13:00 +10°C° 0.1 mm 5 mps 764 mmHg 62%
    14:00 +12°C° 0.1 mm 5 mps 764 mmHg 59%
    15:00 +12°C° 0.1 mm 4 mps 764 mmHg 55%
    16:00 +11°C° 0 mm 4 mps 765 mmHg 59%
    17:00 +8°C° 0 mm 4 mps 765 mmHg 62%
    18:00 +7°C° 0 mm 4 mps 766 mmHg 66%
    19:00 +7°C° 0 mm 4 mps 766 mmHg 65%
    20:00 +6°C° 0 mm 5 mps 767 mmHg 65%
    21:00 +5°C° 0 mm 5 mps 767 mmHg 64%
    22:00 +5°C° 0 mm 5 mps 767 mmHg 63%
    23:00 +5°C° 0 mm 5 mps 767 mmHg 63%

    27 January, Saturday

    Time Temperature Precipitation Wind Pressure Humidity
    00:00 +3°C° 0 mm 5 mps 768 mmHg 62%
    01:00 +3°C° 0 mm 5 mps 768 mmHg 62%
    02:00 +3°C° 0 mm 5 mps 768 mmHg 62%
    03:00 +3°C° 0 mm 5 mps 768 mmHg 62%
    04:00 +3°C° 0 mm 6 mps 768 mmHg 62%
    05:00 +3°C° 0 mm 6 mps 768 mmHg 63%
    06:00 +3°C° 0 mm 7 mps 769 mmHg 63%
    07:00 +4°C° 0 mm 7 mps 769 mmHg 59%
    08:00 +5°C° 0 mm 7 mps 770 mmHg 56%
    09:00 +6°C° 0 mm 7 mps 770 mmHg 52%
    10:00 +8°C° 0 mm 6 mps 770 mmHg 46%
    11:00 +10°C° 0 mm 6 mps 770 mmHg 40%
    12:00 +12°C° 0 mm 5 mps 769 mmHg 34%
    13:00 +12°C° 0 mm 5 mps 769 mmHg 33%
    14:00 +12°C° 0 mm 5 mps 769 mmHg 33%
    15:00 +12°C° 0 mm 5 mps 769 mmHg 32%
    16:00 +9°C° 0 mm 6 mps 769 mmHg 38%
    17:00 +7°C° 0 mm 6 mps 769 mmHg 44%
    18:00 +5°C° 0 mm 6 mps 769 mmHg 50%
    19:00 +4°C° 0 mm 6 mps 770 mmHg 52%
    20:00 +4°C° 0 mm 7 mps 770 mmHg 54%
    21:00 +3°C° 0 mm 7 mps 771 mmHg 55%
    22:00 +3°C° 0 mm 7 mps 771 mmHg 55%
    23:00 +3°C° 0 mm 7 mps 771 mmHg 56%
    Show more